Location: Unspecified
(0.0000°N, 0.0000°E)
Time: 16:40:14
(UTC+01:00)

Cosmos 1954 Rocket - Visible Passes

Search period start: 27 March 2015 00:00
Search period end: 06 April 2015 01:00
Orbit: 753 x 782 km, 74.0° (Epoch: 26 March)

Date Brightness Start Highest point End Pass type
(mag) Time Alt. Az. Time Alt. Az. Time Alt. Az.
27 Mar 4.3 06:34:29 10° S 06:39:38 75° ESE 06:44:47 10° NNE visible
28 Mar 5.7 05:57:52 10° SSE 06:02:32 35° ESE 06:07:14 10° NE visible
29 Mar 6.7 06:22:09 10° SE 06:25:20 17° ESE 06:28:47 10° ENE visible
30 Mar 4.1 07:25:08 10° SSW 07:30:10 54° WNW 07:35:11 10° N visible
31 Mar 4.2 06:47:57 10° S 06:53:05 72° ESE 06:58:13 10° NNE visible
01 Apr 5.5 06:11:23 10° SSE 06:15:58 34° ESE 06:20:38 10° NE visible
02 Apr 6.6 05:35:44 10° SE 05:38:46 16° ESE 05:42:05 10° ENE visible
02 Apr 4.9 07:16:21 10° SW 07:20:44 27° WNW 07:25:00 10° NNW visible
03 Apr 3.9 06:41:06 29° SW 06:43:36 57° WNW 06:48:39 10° N visible
04 Apr 4.2 06:06:36 68° E 06:06:36 68° E 06:11:39 10° NNE visible
05 Apr 6.1 05:31:41 23° ENE 05:31:41 23° ENE 05:34:00 10° NE visible
05 Apr 5.7 07:12:02 13° WNW 07:12:02 13° WNW 07:13:45 10° NW visible
